Bluffton, MN

7:15 AM CST on December 03, 2016 (GMT -0600)
Wadena Municipal

Weather History for KADC - June, 2013

Change the Weather History Date:

Monday, June 3, 2013

  Actual Average Record
Temperature  
Mean Temperature 48 °F -  
Max Temperature 62 °F 72 °F 92 °F (1948)
Min Temperature 35 °F 48 °F 32 °F (1945)
Degree Days  
Heating Degree Days 16    
Moisture  
Dew Point 38 °F    
Average Humidity 61    
Maximum Humidity 93    
Minimum Humidity 39    
Precipitation  
Precipitation 0.00 in - - ()
Sea Level Pressure  
Sea Level Pressure 30.03 in    
Wind  
Wind Speed 5 mph (East)    
Max Wind Speed 15 mph    
Max Gust Speed 20 mph    
Visibility 10 miles    
Events Rain    
Averages and records for this station are not official NWS values.
T = Trace of Precipitation, MM = Missing Value Source: NWS Daily Summary

Daily Weather History Graph

Daily Weather History Graph

Search for Another Location

Airport or City:

Trip Planner

Search our weather history database for the weather conditions in past years. The results will help you decide how hot, cold, wet, or windy it might be!

Date:

Astronomy

Jun. 03, 2013 Rise Set
Actual Time 5:30 AM CDT 9:07 PM CDT
Civil Twilight 4:52 AM CDT 9:46 PM CDT
Nautical Twilight 4:01 AM CDT 10:37 PM CDT
Astronomical Twilight 2:52 AM CDT 11:46 PM CDT
Moon 2:44 AM CDT 4:26 PM CDT
Length of Visible Light 16h 53m
Length of Day
15h 37m
Waning Crescent, 22% of the Moon is Illuminated
Jun 3
Waning Crescent
Jun 8
New
Jun 16
First Quarter
Jun 23
Full
Jun 29
Last Quarter

Hourly Weather History & Observations

Time (CDT) Temp. Windchill Dew Point Humidity Pressure Visibility Wind Dir Wind Speed Gust Speed Precip Events Conditions
12:15 AM 44.6 °F - 37.4 °F 76% 30.04 in 10.0 mi Calm Calm - N/A   Clear
12:35 AM 44.6 °F - 37.4 °F 76% 30.04 in 10.0 mi Calm Calm - N/A   Clear
12:53 AM 44.6 °F - 37.4 °F 76% 30.04 in 10.0 mi Calm Calm - N/A   Clear
1:15 AM 42.8 °F - 37.4 °F 81% 30.04 in 10.0 mi Calm Calm - N/A   Clear
1:35 AM 44.6 °F - 37.4 °F 76% 30.04 in 10.0 mi Calm Calm - N/A   Clear
1:52 AM 42.8 °F 41.1 °F 37.4 °F 81% 30.04 in 10.0 mi NNW 3.5 mph - N/A   Clear
2:15 AM 42.8 °F - 37.4 °F 81% 30.04 in 10.0 mi Calm Calm - N/A   Clear
2:35 AM 41.0 °F 38.0 °F 37.4 °F 87% 30.04 in 10.0 mi North 4.6 mph - N/A   Clear
2:53 AM 41.0 °F 38.0 °F 35.6 °F 81% 30.04 in 10.0 mi NNE 4.6 mph - N/A   Clear
3:15 AM 39.2 °F 35.0 °F 35.6 °F 87% 30.03 in 10.0 mi NNE 5.8 mph - N/A   Clear
3:35 AM 39.2 °F 35.9 °F 35.6 °F 87% 30.03 in 10.0 mi NE 4.6 mph - N/A   Clear
3:53 AM 39.2 °F - 35.6 °F 87% 30.04 in 10.0 mi Calm Calm - N/A   Clear
4:15 AM 39.2 °F - 35.6 °F 87% 30.04 in 10.0 mi Calm Calm - N/A   Clear
4:35 AM 37.4 °F - 35.6 °F 93% 30.03 in 10.0 mi Calm Calm - N/A   Clear
4:53 AM 37.4 °F - 33.8 °F 87% 30.03 in 10.0 mi Calm Calm - N/A   Clear
5:15 AM 35.6 °F 31.7 °F 33.8 °F 93% 30.03 in 10.0 mi NE 4.6 mph - N/A   Clear
5:34 AM 35.6 °F 32.8 °F 33.8 °F 93% 30.03 in 10.0 mi ENE 3.5 mph - N/A   Clear
5:53 AM 37.4 °F 34.9 °F 33.8 °F 87% 30.03 in 10.0 mi ENE 3.5 mph - N/A   Clear
6:15 AM 37.4 °F 34.9 °F 33.8 °F 87% 30.04 in 10.0 mi ENE 3.5 mph - N/A   Clear
6:35 AM 41.0 °F 38.0 °F 35.6 °F 81% 30.04 in 10.0 mi NE 4.6 mph - N/A   Clear
6:53 AM 44.6 °F 42.2 °F 35.6 °F 71% 30.04 in 10.0 mi ENE 4.6 mph - N/A   Clear
7:15 AM 44.6 °F 42.2 °F 35.6 °F 71% 30.05 in 10.0 mi ENE 4.6 mph - N/A   Clear
7:35 AM 48.2 °F - 37.4 °F 66% 30.05 in 10.0 mi East 5.8 mph - N/A   Clear
7:52 AM 48.2 °F - 35.6 °F 62% 30.05 in 10.0 mi East 5.8 mph - N/A   Clear
8:14 AM 50.0 °F - 37.4 °F 62% 30.04 in 10.0 mi East 4.6 mph - N/A   Clear
8:34 AM 51.8 °F - 37.4 °F 58% 30.05 in 10.0 mi East 5.8 mph - N/A   Clear
8:53 AM 53.6 °F - 37.4 °F 54% 30.05 in 10.0 mi ESE 8.1 mph - N/A   Clear
9:15 AM 55.4 °F - 37.4 °F 51% 30.06 in 10.0 mi SE 9.2 mph - N/A   Clear
9:35 AM 57.2 °F - 37.4 °F 48% 30.06 in 10.0 mi ESE 11.5 mph - N/A   Clear
9:53 AM 57.2 °F - 35.6 °F 44% 30.05 in 10.0 mi ESE 11.5 mph 16.1 mph N/A   Clear
10:15 AM 59.0 °F - 35.6 °F 42% 30.05 in 10.0 mi ESE 11.5 mph - N/A   Clear
10:34 AM 60.8 °F - 35.6 °F 39% 30.04 in 10.0 mi ESE 8.1 mph - N/A   Clear
10:53 AM 60.8 °F - 37.4 °F 42% 30.05 in 10.0 mi SE 12.7 mph 17.3 mph N/A   Clear
11:15 AM 60.8 °F - 37.4 °F 42% 30.05 in 10.0 mi SE 11.5 mph - N/A   Clear
11:35 AM 62.6 °F - 37.4 °F 39% 30.05 in 10.0 mi SE 12.7 mph - N/A   Clear
11:53 AM 60.8 °F - 37.4 °F 42% 30.05 in 10.0 mi SSE 9.2 mph - N/A   Clear
12:14 PM 62.6 °F - 37.4 °F 39% 30.05 in 10.0 mi SSE 9.2 mph - N/A   Clear
12:35 PM 60.8 °F - 37.4 °F 42% 30.05 in 10.0 mi South 4.6 mph - N/A   Clear
12:53 PM 60.8 °F - 37.4 °F 42% 30.04 in 10.0 mi SSE 10.4 mph - N/A   Clear
1:15 PM 60.8 °F - 37.4 °F 42% 30.04 in 10.0 mi SE 8.1 mph - N/A   Clear
1:34 PM 60.8 °F - 37.4 °F 42% 30.02 in 10.0 mi ESE 10.4 mph - N/A   Clear
1:53 PM 62.6 °F - 37.4 °F 39% 30.02 in 10.0 mi SE 10.4 mph - N/A   Clear
2:15 PM 60.8 °F - 37.4 °F 42% 30.02 in 10.0 mi SE 6.9 mph - N/A   Clear
2:34 PM 60.8 °F - 39.2 °F 45% 30.01 in 10.0 mi ESE 8.1 mph - N/A   Clear
2:53 PM 60.8 °F - 39.2 °F 45% 30.00 in 10.0 mi ESE 9.2 mph - N/A   Clear
3:15 PM 60.8 °F - 39.2 °F 45% 30.00 in 10.0 mi SE 8.1 mph - N/A   Scattered Clouds
3:35 PM 60.8 °F - 39.2 °F 45% 30.00 in 10.0 mi SE 9.2 mph - N/A   Scattered Clouds
3:52 PM 60.8 °F - 39.2 °F 45% 30.00 in 10.0 mi SE 5.8 mph - N/A   Scattered Clouds
4:14 PM 59.0 °F - 39.2 °F 48% 29.99 in 10.0 mi ESE 6.9 mph - N/A   Mostly Cloudy
4:35 PM 57.2 °F - 42.8 °F 59% 29.98 in 10.0 mi ESE 5.8 mph - N/A Rain Rain
4:53 PM 59.0 °F - 41.0 °F 51% 29.99 in 10.0 mi SE 6.9 mph - N/A Rain Light Rain
5:15 PM 57.2 °F - 42.8 °F 59% 29.97 in 10.0 mi East 5.8 mph - N/A Rain Light Rain
5:34 PM 57.2 °F - 42.8 °F 59% 29.96 in 10.0 mi ESE 9.2 mph - N/A   Light Drizzle
5:53 PM 57.2 °F - 41.0 °F 55% 29.97 in 10.0 mi East 6.9 mph - N/A   Overcast
6:15 PM 57.2 °F - 41.0 °F 55% 29.98 in 10.0 mi ENE 4.6 mph - N/A   Overcast
6:35 PM 57.2 °F - 39.2 °F 51% 29.99 in 10.0 mi East 4.6 mph - N/A   Light Drizzle
6:53 PM 57.2 °F - 39.2 °F 51% 30.00 in 10.0 mi ENE 4.6 mph - N/A   Overcast
7:15 PM 55.4 °F - 41.0 °F 58% 30.00 in 10.0 mi ENE 5.8 mph - N/A   Overcast
7:35 PM 55.4 °F - 42.8 °F 63% 30.00 in 10.0 mi ENE 6.9 mph - N/A   Overcast
7:53 PM 53.6 °F - 42.8 °F 67% 30.00 in 10.0 mi ENE 8.1 mph - N/A Rain Light Rain
8:14 PM 53.6 °F - 42.8 °F 67% 30.01 in 10.0 mi ENE 8.1 mph - N/A   Overcast
8:34 PM 53.6 °F - 42.8 °F 67% 30.01 in 10.0 mi East 8.1 mph - N/A   Overcast
8:53 PM 53.6 °F - 42.8 °F 67% 30.02 in 10.0 mi East 5.8 mph - N/A   Overcast
9:15 PM 55.4 °F - 41.0 °F 58% 30.03 in 10.0 mi ESE 6.9 mph - N/A   Overcast
9:35 PM 55.4 °F - 41.0 °F 58% 30.03 in 10.0 mi ESE 8.1 mph - N/A   Overcast
9:53 PM 55.4 °F - 39.2 °F 54% 30.03 in 10.0 mi ESE 9.2 mph - N/A   Overcast
10:15 PM 55.4 °F - 39.2 °F 54% 30.03 in 10.0 mi ESE 10.4 mph - N/A   Overcast
10:35 PM 55.4 °F - 39.2 °F 54% 30.04 in 10.0 mi ESE 11.5 mph - N/A   Overcast
10:53 PM 55.4 °F - 39.2 °F 54% 30.01 in 10.0 mi ESE 15.0 mph - N/A   Overcast
11:15 PM 55.4 °F - 39.2 °F 54% 30.00 in 10.0 mi ESE 13.8 mph 19.6 mph N/A   Overcast
11:35 PM 53.6 °F - 39.2 °F 58% 30.02 in 10.0 mi ESE 9.2 mph - N/A   Mostly Cloudy
11:52 PM 53.6 °F - 39.2 °F 58% 29.99 in 10.0 mi East 12.7 mph - N/A   Overcast